[[{"header":{"parameterUnit":"m.s-1","parameterCategory":1,"la1":30.2991,"la2":30.254,"lo1":-89.0895,"lo2":-89.0444,"dy":0.0017,"dx":0.0017,"nx":28,"ny":28,"refTime":"2025-07-06T21:00:00:Z","depth":0,"parameterNumber":2,"parameterNumberName":"U-component_of_WINDS"},"data":[0,0,0,0,0,0,0,0,0,0,0,0,0,0,0,0,0,0,0,0,0,0,0,0,0,0,0,0,0,0,0,0,0,0,0,0,0,0,0,0,0,0,0,0,0,0,0,0,0,0,0,0,0,0,0,0,0,0,4.0779,4.0781,0,4.0909,4.0911,4.0912,4.0844,4.0841,4.0837,4.0834,4.0968,4.0975,4.0982,0,0,0,0,0,0,0,0,0,0,0,0,0,4.0472,4.0478,4.0779,4.0781,4.0783,4.0909,4.0911,4.0912,4.0845,4.0841,4.0837,4.0833,4.0966,4.0974,4.0982,0,0,0,0,0,0,0,0,0,0,0,0,0,4.0604,4.048,4.0779,4.0764,4.0764,4.0908,4.0911,4.0913,4.0846,4.0841,4.0835,4.0831,4.0964,4.0973,4.0984,4.115,0,0,4.1015,4.1019,0,0,0,0,0,0,0,0,4.0597,4.0616,4.0765,4.0765,4.0766,4.0855,4.0851,4.0993,4.0847,4.0815,4.0834,4.0828,4.0935,4.0947,4.0983,4.1157,4.1162,4.1016,4.1022,4.1026,4.1029,0,0,0,0,0,0,0,4.0588,4.061,4.0831,4.0767,4.0768,4.0751,4.0764,4.0878,4.0903,4.0817,4.0813,4.0829,4.0934,4.0973,4.0986,4.1164,4.1015,4.1024,4.1031,4.1035,4.1478,4.1483,0,0,0,0,0,0,4.0579,4.0602,4.0826,4.0834,4.0667,4.076,4.0775,4.0832,4.0901,4.0907,4.0833,4.0825,4.0959,4.0974,4.099,4.1187,4.1026,4.1036,4.1042,4.1472,4.1479,4.1485,0,0,0,0,0,0,4.0573,4.06,4.0821,4.0717,4.0744,4.0771,4.0836,4.0837,4.0876,4.0913,4.0917,4.0869,4.0955,4.0976,4.111,4.1191,4.104,4.105,4.1465,4.1474,4.1482,4.1584,0,0,0,0,0,0,4.0565,4.0598,4.0662,4.0719,4.075,4.094,4.0841,4.0843,4.0894,4.0884,4.0947,4.0953,4.0953,4.1095,4.112,4.1202,4.1057,4.1458,4.1469,4.1479,4.1574,4.1595,4.1613,0,0,0,0,0,4.0554,4.0687,4.0666,4.0693,4.0831,4.0944,4.0962,4.0958,4.09,4.0964,4.0988,4.0951,4.1178,4.111,4.1137,4.1223,4.1453,4.1466,4.1478,4.1565,4.1591,4.1613,0,0,0,0,0,0,4.064,4.0694,4.0671,4.0827,4.0882,4.0933,4.1014,4.0987,4.1059,4.1048,4.1041,4.1056,4.1194,4.1223,4.1145,4.1387,4.1307,4.1325,4.1363,4.1388,4.1408,4.1397,4.1066,0,0,0,0,0,4.0677,4.0765,4.0808,4.0941,4.0969,4.0987,4.1037,4.1029,4.1085,4.1108,4.1141,4.1197,4.1281,4.1336,4.1416,4.1578,4.1589,4.1651,4.1671,4.1687,4.1702,4.1787,4.1814,4.1527,4.1527,4.1526,0,0,4.0755,4.0795,4.0851,4.0959,4.1,4.1091,4.1007,4.1107,4.1173,4.1123,4.1251,4.1278,4.1339,4.1487,4.1554,4.1515,4.1784,4.1703,4.1715,4.1723,4.1803,4.183,4.1854,4.1535,4.1534,4.1532,0,0,4.0942,4.0982,4.1096,4.1138,4.1201,4.1212,4.1239,4.1294,4.1309,4.1437,4.14,4.148,4.1625,4.1669,4.1711,4.1912,4.188,4.1939,4.2042,4.2124,4.2146,4.2166,4.2235,4.226,4.1954,4.1955,4.1955,0,4.103,4.1165,4.1158,4.126,4.1307,4.1265,4.1379,4.1421,4.1507,4.154,4.1495,4.1674,4.1713,4.1869,4.1918,4.1954,4.1983,4.193,4.2144,4.2164,4.2182,4.2247,4.2274,4.1961,4.196,4.196,4.1959,0,4.1268,4.1362,4.1447,4.1529,4.1586,4.1694,4.1702,4.1761,4.1748,4.1763,4.1892,4.1937,4.2023,4.206,4.205,4.2214,4.2188,4.2144,4.2063,4.2216,4.2277,4.2302,4.197,4.1968,4.1966,4.1965,0,0,4.1514,4.1589,4.162,4.1655,4.172,4.1792,4.1897,4.198,4.2029,4.209,4.2176,4.2299,4.2257,4.2305,4.2299,4.2371,4.2523,4.2318,4.2319,4.2352,4.2704,4.2735,4.2764,4.2503,4.2508,4.2512,4.2698,0,4.1702,4.1885,4.1881,4.205,4.2135,4.2095,4.2186,4.2235,4.2252,4.2326,4.2344,4.243,4.237,4.2398,4.2468,4.249,4.2594,4.2477,4.2581,4.2585,4.2564,4.2796,4.283,4.3003,4.2722,4.2726,4.2729,0,4.1947,4.2013,4.2191,4.224,4.2276,4.2358,4.2431,4.2504,4.2558,4.2565,4.2616,4.2598,4.2703,4.262,4.2763,4.2684,4.2727,4.2744,4.275,4.2758,4.2665,4.2808,4.3059,4.3083,4.2767,4.2764,4.2761,0,4.2104,4.2238,4.236,4.2392,4.2455,4.2512,4.2541,4.259,4.2639,4.2704,4.2736,4.2813,4.2855,4.2914,4.2917,4.2857,4.306,4.2979,4.3067,4.3067,4.311,4.3107,4.3369,4.3142,4.3142,4.3141,4.3141,0,4.2314,4.2423,4.2431,4.2506,4.2627,4.2621,4.274,4.2763,4.2807,4.2885,4.2856,4.293,4.293,4.3005,4.3007,4.3124,4.3144,4.3151,4.315,4.3152,4.3151,4.3178,4.3165,4.3148,4.3147,4.3146,4.3144,0,4.2509,4.2519,4.2649,4.2696,4.2711,4.2797,4.2837,4.2908,4.2921,4.302,4.3043,4.3063,4.315,4.3158,4.326,4.3261,4.34,4.3388,4.3382,4.3378,4.3465,4.3456,4.3752,4.3789,4.3541,4.3543,4.3545,0,4.2641,4.2723,4.2779,4.2828,4.2859,4.294,4.2989,4.2987,4.3039,4.3106,4.3168,4.3251,4.3317,4.3457,4.3481,4.3557,4.3545,4.3643,4.3556,4.3554,4.3542,4.3536,4.3543,4.3659,4.3662,4.3664,4.3666,0,4.2873,4.2873,4.2945,4.3018,4.3077,4.3135,4.3189,4.3232,4.3235,4.3295,4.3382,4.3434,4.3535,4.3617,4.3692,4.3721,4.3694,4.3693,4.3717,4.3719,4.371,4.3713,4.3424,4.3686,4.3684,4.3683,4.3682,4.3681,4.3038,4.3108,4.3157,4.3237,4.3277,4.3328,4.3395,4.3416,4.3489,4.357,4.3564,4.366,4.371,4.3806,4.3841,4.3915,4.3882,4.3917,4.3926,4.3934,4.3941,4.3701,4.3929,4.3928,4.3928,4.3927,4.3927,0,4.3266,4.3295,4.3369,4.3444,4.3506,4.3475,4.3532,4.3587,4.3671,4.3719,4.3784,4.3883,4.3962,4.3991,4.4068,4.4121,4.4111,4.4141,4.4136,4.4142,4.3968,4.3938,4.4149,4.4149,4.4148,4.4148,4.4148,4.4148,4.3391,4.3507,4.3513,4.3647,4.3676,4.3768,4.3803,4.3849,4.3887,4.3998,4.4063,4.4081,4.4121,4.42,4.4271,4.4277,4.4305,4.4341,4.4342,4.4178,4.4155,4.4134,4.4105,4.4348,4.4348,4.451,4.4511,4.4512]},{"header":{"parameterUnit":"m.s-1","parameterCategory":1,"la1":30.2991,"la2":30.254,"lo1":-89.0895,"lo2":-89.0444,"dy":0.0017,"dx":0.0017,"nx":28,"ny":28,"refTime":"2025-07-06T21:00:00:Z","depth":0,"parameterNumber":3,"parameterNumberName":"V-component_of_WINDS"},"data":[0,0,0,0,0,0,0,0,0,0,0,0,0,0,0,0,0,0,0,0,0,0,0,0,0,0,0,0,0,0,0,0,0,0,0,0,0,0,0,0,0,0,0,0,0,0,0,0,0,0,0,0,0,0,0,0,0,0,1.1135,1.1135,0,1.1144,1.1145,1.1145,1.1112,1.1111,1.111,1.1109,1.112,1.1122,1.1123,0,0,0,0,0,0,0,0,0,0,0,0,0,1.1089,1.109,1.1135,1.1135,1.1135,1.1144,1.1145,1.1145,1.1112,1.1111,1.111,1.1109,1.112,1.1122,1.1123,0,0,0,0,0,0,0,0,0,0,0,0,0,1.1105,1.1091,1.1135,1.112,1.1119,1.1144,1.1145,1.1145,1.1113,1.1111,1.111,1.1108,1.112,1.1121,1.1123,1.1164,0,0,1.1129,1.1129,0,0,0,0,0,0,0,0,1.1104,1.1107,1.1122,1.1121,1.112,1.1126,1.1132,1.1151,1.1113,1.1115,1.1109,1.1108,1.1123,1.1125,1.113,1.1164,1.1165,1.1129,1.113,1.1131,1.1131,0,0,0,0,0,0,0,1.1103,1.1106,1.1139,1.1123,1.1121,1.1113,1.1114,1.1136,1.1128,1.1115,1.1113,1.1114,1.1123,1.1128,1.113,1.1165,1.1129,1.113,1.1132,1.1132,1.1231,1.1232,0,0,0,0,0,0,1.1104,1.1105,1.1138,1.1139,1.1108,1.1115,1.1116,1.1125,1.1127,1.1126,1.1115,1.1112,1.1126,1.1128,1.113,1.1177,1.1131,1.1132,1.1133,1.1229,1.1231,1.1233,0,0,0,0,0,0,1.1103,1.1107,1.1138,1.1122,1.1125,1.1118,1.1128,1.1126,1.1132,1.1127,1.1126,1.1123,1.1125,1.1128,1.1155,1.1177,1.1133,1.1135,1.1228,1.123,1.1232,1.127,0,0,0,0,0,0,1.1102,1.1107,1.1122,1.1122,1.1126,1.1163,1.113,1.1128,1.1135,1.1131,1.1134,1.1133,1.1124,1.1153,1.1157,1.1178,1.1136,1.1226,1.1229,1.1231,1.1267,1.1274,1.1279,0,0,0,0,0,1.11,1.1134,1.1123,1.1128,1.1145,1.1164,1.1166,1.1155,1.1137,1.1152,1.1149,1.1133,1.1173,1.1156,1.116,1.1183,1.1224,1.1228,1.1231,1.1265,1.1273,1.1279,0,0,0,0,0,0,1.1138,1.1133,1.1122,1.1156,1.1161,1.1159,1.1178,1.1164,1.1174,1.1171,1.1156,1.1157,1.1187,1.1187,1.1168,1.1221,1.1196,1.12,1.122,1.1227,1.1233,1.1232,1.1138,0,0,0,0,0,1.115,1.1165,1.1161,1.1192,1.1194,1.1186,1.1194,1.1184,1.1189,1.1191,1.1189,1.1195,1.1208,1.1218,1.123,1.1267,1.1267,1.1284,1.1291,1.1296,1.13,1.1318,1.1325,1.1244,1.1244,1.1244,0,0,1.1175,1.1175,1.1186,1.1199,1.1201,1.1218,1.1188,1.1207,1.1219,1.1194,1.1219,1.1218,1.1223,1.1255,1.1269,1.1256,1.1322,1.13,1.1304,1.1305,1.1322,1.133,1.1337,1.1247,1.1246,1.1246,0,0,1.123,1.1231,1.1256,1.1259,1.1262,1.1256,1.1262,1.1262,1.126,1.1285,1.1266,1.128,1.1304,1.1308,1.1313,1.1367,1.1352,1.1371,1.1403,1.1421,1.1427,1.1433,1.1451,1.1458,1.1375,1.1375,1.1376,0,1.1261,1.1285,1.1271,1.1291,1.1296,1.1273,1.1298,1.1301,1.1309,1.1314,1.1299,1.1328,1.133,1.1362,1.1374,1.138,1.1385,1.1371,1.1427,1.1433,1.1438,1.1455,1.1462,1.1378,1.1377,1.1377,1.1377,0,1.1323,1.1339,1.1359,1.1365,1.1374,1.1396,1.1385,1.1395,1.1385,1.138,1.1405,1.1406,1.1417,1.1424,1.1415,1.1454,1.1446,1.143,1.1404,1.1448,1.1464,1.1471,1.1381,1.138,1.1379,1.1379,0,0,1.1402,1.1399,1.1407,1.1409,1.141,1.1423,1.1443,1.1454,1.1462,1.1468,1.1485,1.1505,1.1489,1.1495,1.1485,1.1501,1.1542,1.1483,1.1482,1.1493,1.1585,1.1597,1.1604,1.1532,1.1534,1.1534,1.1584,0,1.1455,1.149,1.1477,1.1512,1.1527,1.1504,1.1522,1.1525,1.1521,1.1532,1.1528,1.1542,1.1521,1.1524,1.1538,1.1534,1.156,1.1531,1.1547,1.1548,1.1547,1.1613,1.1626,1.1673,1.159,1.1591,1.1592,0,1.1522,1.1528,1.1565,1.1562,1.1568,1.1584,1.1592,1.1603,1.1605,1.1601,1.1607,1.1593,1.1613,1.1587,1.1614,1.1594,1.16,1.1599,1.16,1.1601,1.1573,1.1615,1.1687,1.1694,1.1602,1.1601,1.16,0,1.1575,1.1593,1.1617,1.162,1.1617,1.1629,1.1629,1.1629,1.1636,1.1642,1.1646,1.1656,1.1661,1.1668,1.1658,1.164,1.1685,1.1659,1.1682,1.1682,1.1693,1.1692,1.1766,1.1698,1.1697,1.1697,1.1697,0,1.1635,1.1658,1.1641,1.1655,1.168,1.1665,1.169,1.1687,1.1688,1.1701,1.1683,1.1696,1.1681,1.1693,1.1685,1.1707,1.171,1.1707,1.1704,1.1708,1.1709,1.1712,1.1708,1.1699,1.1699,1.1698,1.1698,0,1.1699,1.1688,1.1712,1.1707,1.1706,1.1725,1.1721,1.1734,1.1727,1.1745,1.1748,1.1739,1.1751,1.1741,1.1754,1.1748,1.1778,1.1771,1.1777,1.1775,1.1798,1.1796,1.1877,1.1886,1.1812,1.1813,1.1813,0,1.1737,1.1754,1.175,1.1758,1.1758,1.177,1.1776,1.1762,1.1769,1.1771,1.1784,1.1795,1.1803,1.1824,1.1818,1.1828,1.1821,1.1848,1.1822,1.1825,1.182,1.1819,1.182,1.1854,1.1855,1.1855,1.1856,0,1.1807,1.18,1.1809,1.1816,1.1824,1.1829,1.1832,1.1839,1.1824,1.1833,1.1845,1.1851,1.1863,1.1874,1.1881,1.1881,1.1866,1.1864,1.187,1.1874,1.1876,1.1874,1.1791,1.1862,1.1862,1.1861,1.1861,1.1861,1.1859,1.1872,1.1871,1.1881,1.1882,1.1885,1.1897,1.1891,1.1901,1.1909,1.19,1.1914,1.1915,1.1923,1.1924,1.1935,1.1923,1.1932,1.1934,1.1936,1.1939,1.1874,1.1936,1.1936,1.1936,1.1936,1.1936,0,1.1927,1.1924,1.1934,1.1938,1.1946,1.1931,1.1933,1.1941,1.1954,1.1955,1.1962,1.1976,1.1986,1.198,1.1989,1.1999,1.1992,1.2001,1.2,1.2,1.1949,1.1943,1.2006,1.2006,1.2006,1.2006,1.2006,1.2006,1.1963,1.1984,1.1977,1.1998,1.1996,1.2009,1.2012,1.2015,1.2015,1.2031,1.2038,1.2034,1.2033,1.2041,1.2049,1.2047,1.2051,1.2062,1.2058,1.2011,1.2004,1.1997,1.1991,1.2064,1.2064,1.2108,1.2108,1.2108]}]]